TimeEST,TemperatureF,Dew PointF,Humidity,Sea Level PressureIn,VisibilityMPH,Wind Direction,Wind SpeedMPH,Gust SpeedMPH,PrecipitationIn,Events,Conditions,WindDirDegrees,DateUTC
12:58 AM,47.8,47.3,98,30.11,10.0,NW,8.1,-,N/A,,Clear,310,2013-02-20 05:58:00
1:58 AM,46.4,38.3,73,30.12,10.0,NW,5.8,-,N/A,,Clear,310,2013-02-20 06:58:00
2:58 AM,44.1,34.2,68,30.13,10.0,Variable,4.6,-,N/A,,Clear,0,2013-02-20 07:58:00
3:58 AM,42.1,29.8,62,30.13,10.0,WNW,3.5,-,N/A,,Clear,290,2013-02-20 08:58:00
4:58 AM,35.4,33.4,92,30.13,10.0,SW,2.3,-,N/A,,Clear,230,2013-02-20 09:58:00
5:58 AM,34.5,32.5,92,30.15,10.0,WSW,2.3,-,N/A,,Clear,250,2013-02-20 10:58:00
6:58 AM,31.3,30.9,99,30.18,10.0,Calm,Calm,-,N/A,,Clear,0,2013-02-20 11:58:00
7:58 AM,32.2,32.0,99,30.20,10.0,Calm,Calm,-,N/A,,Clear,20,2013-02-20 12:58:00
8:58 AM,43.0,28.2,56,30.19,10.0,WNW,4.6,-,N/A,,Clear,300,2013-02-20 13:58:00
9:58 AM,46.4,26.2,45,30.19,10.0,NW,9.2,-,N/A,,Clear,320,2013-02-20 14:58:00
10:58 AM,50.5,22.8,34,30.18,10.0,Variable,4.6,-,N/A,,Clear,0,2013-02-20 15:58:00
11:55 AM,53.6,26.6,35,30.15,10.0,Variable,3.5,-,N/A,,Clear,0,2013-02-20 16:55:00
12:55 PM,55.4,26.6,33,30.11,10.0,Variable,1.2,-,N/A,,Partly Cloudy,0,2013-02-20 17:55:00
1:55 PM,59.0,24.8,27,30.09,10.0,West,4.6,-,N/A,,Clear,260,2013-02-20 18:55:00
2:58 PM,61.5,25.9,26,30.09,10.0,West,8.1,-,N/A,,Clear,260,2013-02-20 19:58:00
3:58 PM,62.2,25.5,25,30.09,10.0,Variable,5.8,-,N/A,,Clear,0,2013-02-20 20:58:00
4:58 PM,62.4,28.0,27,30.09,10.0,West,4.6,-,N/A,,Clear,270,2013-02-20 21:58:00
5:58 PM,58.5,32.4,37,30.11,10.0,WNW,2.3,-,N/A,,Scattered Clouds,290,2013-02-20 22:58:00
6:58 PM,52.2,38.5,60,30.13,10.0,West,2.3,-,N/A,,Mostly Cloudy,280,2013-02-20 23:58:00
7:58 PM,49.3,36.9,62,30.13,10.0,NNE,1.2,-,N/A,,Overcast,20,2013-02-21 00:58:00
8:58 PM,48.4,40.5,74,30.10,10.0,Calm,Calm,-,N/A,,Overcast,0,2013-02-21 01:58:00
9:58 PM,46.9,38.8,73,30.11,10.0,NNW,1.2,-,N/A,,Overcast,330,2013-02-21 02:58:00
10:58 PM,43.0,37.6,81,30.11,10.0,Calm,Calm,-,N/A,,Clear,0,2013-02-21 03:58:00
11:58 PM,40.5,36.3,85,30.11,10.0,Calm,Calm,-,N/A,,Partly Cloudy,0,2013-02-21 04:58:00